Granby, CO (80446)

10:56 PM MST on November 22, 2014 (GMT -0700)
Granby Ranch | Change Station
CLOSE
Current Station
Personal Weather Station
Location: Granby, CO
Elevation: 8360 ft
Nearby Weather Stations
Active Advisory: Winter Weather Advisory Active Notice: Public Information Statement

Elev 8360 ft 40.05 °N, 105.91 °W | Updated 1 minute ago

Snow
Snow
28.1 °F
Feels Like 28 °F
N
0.0
Wind Variable Wind from North
Gusts 2.0 mph

Today
High -- | Low -- °F
--% Chance of Precip.
Yesterday
High -- | Low -- °F
Precip. -- in
6:56 AM 4:42 PM
New Moon, 1% visible
Pressure 29.74 in
Visibility 0.5 miles
Clouds Overcast 400 ft
Windchill 28 °F
Dew Point 27 °F
Humidity 95%
Rainfall 0.00 in
Snow Depth Not available.
UV 0 out of 12
Pollen .10 out of 12
Air Quality Not available.
Flu Activity Not available.
METAR K20V 230535Z AUTO 32007KT 1/2SM SN OVC004 00/M01 A2974 RMK AO2

More Conditions Fewer Conditions

Pressure 29.74 in
Visibility 0.5 miles
Clouds Overcast 400 ft
Windchill 28 °F
Dew Point 27 °F
Humidity 95%
Rainfall 0.00 in
Snow Depth Not available.
UV 0 out of 12
Pollen .10 out of 12
Air Quality Not available.
Flu Activity Not available.
METAR K20V 230535Z AUTO 32007KT 1/2SM SN OVC004 00/M01 A2974 RMK AO2

More Conditions Fewer Conditions

Nowcast | as of 9:41 PM MST on November 22, 2014

Scattered to numerous snow showers will continue over the north central mountains through midnight. The activity will be most numerous along and near the Continental Divide and along and south of the Interstate 70 corridor. Snowfall rates will generally be less than one quarter inch per hour...with rates up to one half inch per hour with the heavier showers. West winds at 15 to 25 mph with gusts up to 45 mph will continue over the High Mountain passes. The winds will producing areas of blowing snow in windy areas.

×

10-Day Weather Forecast

Almanac

Astronomy

Nov. 22, 2014 Rise Set
Actual Time
Civil Twilight
Nautical Twilight
Astronomical Twilight
Moon
Length of Visible Light
Length of Day
Tomorrow will be .
, % of the Moon is Illuminated

Today's Extremes

State Highs State Lows

Community

WunderPhotos

Upload Photos

1,773,017 photos uploaded!

WunderBlogs® & News

Nearby

Air Quality

  Air Quality AQ Index Pollutant
Not available.

Snow Depth

Station Depth Elevation

Earthquake Activity

City Distance Mag. Time & Date
Minimum magnitude displayed is 2.5.

Coastal Water Temperatures

Place Temperature

Nearby Weather Stations